www.pogodaiklimat.ru
ПОГОДА в Горна-Оряховице

Архив погоды в Горна-Оряховице (Болгария)

Время
(UTC), дата
04 21.05
05 21.05
06 21.05
07 21.05
08 21.05
09 21.05
10 21.05
11 21.05
12 21.05
13 21.05
14 21.05
15 21.05
16 21.05
17 21.05
18 21.05
19 21.05
20 21.05
21 21.05
22 21.05
23 21.05
00 22.05
01 22.05
02 22.05
03 22.05
04 22.05
05 22.05
06 22.05
07 22.05
08 22.05
09 22.05
10 22.05
11 22.05
12 22.05
13 22.05
14 22.05
15 22.05
16 22.05
17 22.05
18 22.05
19 22.05
20 22.05
21 22.05
22 22.05
23 22.05
00 23.05
01 23.05
02 23.05
03 23.05
04 23.05
05 23.05
06 23.05
07 23.05
08 23.05
09 23.05
10 23.05
11 23.05
12 23.05
13 23.05
14 23.05
15 23.05
16 23.05
17 23.05
18 23.05
19 23.05
20 23.05
21 23.05
22 23.05
23 23.05
00 24.05
01 24.05
02 24.05
03 24.05
04 24.05
05 24.05
06 24.05
07 24.05
08 24.05
09 24.05
10 24.05
11 24.05
12 24.05
13 24.05
14 24.05
15 24.05
16 24.05
17 24.05
18 24.05
19 24.05
20 24.05
21 24.05
22 24.05
23 24.05
00 25.05
01 25.05
02 25.05
03 25.05
04 25.05
05 25.05
06 25.05
07 25.05
08 25.05
09 25.05
10 25.05
11 25.05
12 25.05
13 25.05
14 25.05
15 25.05
16 25.05
17 25.05
18 25.05
19 25.05
20 25.05
21 25.05
22 25.05
23 25.05
00 26.05
01 26.05
02 26.05
03 26.05
04 26.05
05 26.05
06 26.05
07 26.05
08 26.05
09 26.05
10 26.05
11 26.05
12 26.05
13 26.05
14 26.05
15 26.05
16 26.05
17 26.05
18 26.05
19 26.05
20 26.05
21 26.05
22 26.05
23 26.05
00 27.05
01 27.05
02 27.05
03 27.05
04 27.05
05 27.05
06 27.05
07 27.05
08 27.05
09 27.05
10 27.05
11 27.05
12 27.05
13 27.05
14 27.05
15 27.05
16 27.05
17 27.05
18 27.05
19 27.05
20 27.05
21 27.05
22 27.05
23 27.05
00 28.05
01 28.05
02 28.05
03 28.05
04 28.05
Ветер
(напр.,м/с)
Видим. Явления Облачность Т
(С)
Тd
(С)
f
(%)
Тe
(С)
Тes
(С)
Комфортность P
(гПа)
Po
(гПа)
Тmin
(С)
Tmax
(С)
R
(мм)
R24
(мм)
S
(см)
В 2 н/о ясно +10.0 +10.0 100 +8 +8 1018.0 1007.4
В 2 10 км ясно +12.0 +11.0 94 +11 +11 1018.0 1007.5
В 2 н/о ясно +16.0 +11.0 72 +16 +16 1018.0 1007.6
В 2 н/о ясно +20.0 +12.0 60 +22 +22 комфорт 1017.0 1006.8
нст 2 10 км ясно +23.0 +13.0 53 +26 +26 жарко 1016.0 1005.9
нст 2 10 км ясно +25.0 +11.0 41 +26 +26 жарко 1016.0 1006.0
нст 2 10 км ясно +27.0 +12.0 39 +28 +28 жарко 1016.0 1006.0
З 5 н/о ясно +28.0 +11.0 35 +29 +29 жарко 1015.0 1005.1
З 2 н/о ясно +29.0 +9.0 29 +29 +29 жарко 1014.0 1004.1
нст 3 10 км ясно +29.0 +8.0 27 +28 +28 жарко 1013.0 1003.1
СЗ 5 н/о ясно +30.0 +6.0 22 +29 +29 жарко 1013.0 1003.1
З 4 н/о ясно +29.0 +9.0 29 +29 +29 жарко 1012.0 1002.1
З 3 10 км ясно +29.0 +11.0 33 +30 +30 жарко 1011.0 1001.1
ЮЗ 2 10 км ясно +27.0 +11.0 37 +28 +28 жарко 1011.0 1001.1
штиль 0 10 км ясно +20.0 +15.0 73 +22 +22 комфорт 1011.0 1000.9
штиль 0 10 км ясно +17.0 +13.0 77 +17 +17 1011.0 1000.7
нст 1 10 км ясно +16.0 +13.0 82 +17 +17 1011.0 1000.7
нст 1 10 км 2/0 3900 м
[Ac]
+14.0 +13.0 94 +14 +14 1011.0 1000.6
В 2 н/о 8/0 5100 м
[Ac]
+14.0 +12.0 88 +13 +13 1010.0 999.6
В 2 10 км 10/0 4800 м
[Ac]
+15.0 +13.0 88 +15 +15 1010.0 999.7
В 3 10 км 5/0 5100 м
[Ac]
+16.0 +12.0 77 +16 +16 1010.0 999.7
СЗ 2 10 км 2/0 4200 м
[Ac]
+20.0 +14.0 68 +23 +23 комфорт 1010.0 999.9
СЗ 3 10 км 10/0 4200 м
[Ac]
+20.0 +14.0 68 +22 +22 комфорт 1010.0 999.9
СЗ 4 10 км 2/0 4200 м
[Ac]
+19.0 +13.0 68 +20 +20 1010.0 999.8
СЗ 2 н/о ясно +19.0 +13.0 68 +21 +21 комфорт 1011.0 1000.8
З 4 н/о 2/0 3300 м
[Ac]
+21.0 +13.0 60 +24 +26 комфорт 1011.0 1000.9
З 7 10 км ясно +23.0 +12.0 50 +26 +26 жарко 1011.0 1000.9
СЗ 7 10 км 8/0 3900 м
[Ac]
+24.0 +11.0 44 +25 +27 комфорт 1011.0 1001.0
СЗ 7 10 км 8/0 4800 м
[Ac]
+24.0 +11.0 44 +25 +27 комфорт 1010.0 1000.0
З 9 10 км 8/0 5100 м
[Ac]
+24.0 +12.0 47 +26 +26 жарко 1009.0 999.0
З 9 10 км 2/0 7200 м
[Ci]
+26.0 +12.0 42 +27 +29 жарко 1009.0 999.1
З 9 10 км ясно +26.0 +11.0 39 +27 +27 жарко 1008.0 998.1
З 11-17 10 км ясно +28.0 +7.0 26 +27 +27 жарко 1007.0 997.1
СЗ 11 10 км 8/0 5100 м
[Ac]
+27.0 +4.0 23 +26 +26 жарко 1007.0 997.1
З 12 10 км 2/0 5100 м
[Ac]
+27.0 +5.0 24 +26 +26 жарко 1007.0 997.1
СЗ 9 10 км 5/0 4800 м
[Ac]
+27.0 +9.0 32 +27 +27 жарко 1007.0 997.1
З 9 10 км ясно +26.0 +7.0 30 +26 +26 жарко 1007.0 997.1
З 7 10 км 8/0 4500 м
[Ac]
+24.0 +7.0 34 +24 +24 комфорт 1007.0 997.0
З 6 10 км 8/0 4500 м
[Ac]
+22.0 +7.0 38 +23 +23 комфорт 1008.0 997.9
З 5 10 км ясно +21.0 +8.0 43 +22 +22 комфорт 1008.0 997.9
З 7 10 км ясно +21.0 +6.0 38 +22 +22 комфорт 1009.0 998.9
З 4 10 км 8/0 2670 м
[Ac]
+18.0 +7.0 49 +18 +18 1009.0 998.8
СЗ 2 н/о 2/0 2820 м
[Ac]
+15.0 +7.0 59 +15 +15 1009.0 998.7
З 4 10 км ясно +14.0 +7.0 63 +13 +13 1009.0 998.6
нст 1 10 км 8/0 2670 м
[Ac]
+14.0 +7.0 63 +14 +14 1009.0 998.6
нст 1 10 км 8/0 2550 м
[Ac]
+13.0 +8.0 72 +13 +13 1009.0 998.6
СВ 2 10 км ясно +9.0 +7.0 87 +7 +7 1009.0 998.5
ЮВ 2 10 км 8/0 2580 м
[Ac]
+10.0 +10.0 100 +8 +8 1010.0 999.5
С 1 10 км ясно +11.0 +11.0 100 +11 +11 1010.0 999.5
В 2 10 км 2/0 2490 м
[Ac]
+15.0 +10.0 72 +15 +17 1010.0 999.7
В 2 10 км ясно +17.0 +9.0 59 +17 +17 1010.0 999.7
нст 2 10 км ясно +19.0 +10.0 56 +20 +20 1009.0 998.8
нст 2 10 км ясно +21.0 +10.0 49 +23 +23 комфорт 1009.0 998.9
З 3 н/о ясно +23.0 +11.0 47 +25 +25 комфорт 1009.0 999.0
З 6 н/о 5/0 2100 м
[Ac]
+25.0 +9.0 36 +26 +30 жарко 1009.0 999.0
З 7 10 км 5/0 2130 м
[Ac]
+24.0 +8.0 36 +24 +28 комфорт 1008.0 998.0
СЗ 5-11 н/о 5/0 2190 м
[Ac]
+26.0 +9.0 34 +26 +32 жарко 1008.0 998.1
С 4 н/о 8/0 2490 м
[Ac]
+24.0 +9.0 38 +25 +29 комфорт 1008.0 998.0
СЗ 4 н/о 5/0 2610 м
[Ac]
+25.0 +7.0 32 +25 +29 комфорт 1008.0 998.0
С 3 н/о 2/0 2370 м
[Ac]
+25.0 +9.0 36 +26 +29 жарко 1008.0 998.0
С 3 10 км ясно +24.0 +8.0 36 +24 +24 комфорт 1008.0 998.0
В 3 10 км ясно +20.0 +10.0 53 +22 +22 комфорт 1009.0 998.9
ЮВ 3 10 км ясно +18.0 +11.0 64 +18 +18 1009.0 998.8
ЮВ 3 10 км ясно +16.0 +11.0 72 +16 +16 1010.0 999.7
В 3 10 км 8/0 2850 м
[Ac Ci]
+14.0 +11.0 82 +13 +13 1010.0 999.6
В 2 10 км 8/0 2790 м
[Ac Ci]
+13.0 +10.0 82 +12 +12 1010.0 999.6
ЮВ 3 10 км 5/0 2730 м
[Ac]
+14.0 +11.0 82 +13 +13 1010.0 999.6
В 3 10 км 8/0 2700 м
[Ac]
+13.0 +11.0 88 +12 +12 1010.0 999.6
ЮВ 3 н/о 8/0 2430 м
[Ac]
+14.0 +11.0 82 +13 +13 1010.0 999.6
В 3 10 км 8/0 2310 м
[Ac]
+13.0 +13.0 100 +11 +11 1010.0 999.6
В 3 10 км 5/0 2250 м
[Ac]
+12.0 +12.0 100 +10 +10 1010.0 999.6
В 2 10 км ясно +10.0 +10.0 100 +8 +8 1010.0 999.5
В 2 10 км ясно +12.0 +12.0 100 +11 +11 1011.0 1000.6
В 2 н/о 2/0 2400 м
[Ac]
+16.0 +11.0 72 +16 +19 1011.0 1000.7
В 3 10 км 2/0 2130 м
[Ac]
+19.0 +12.0 64 +20 +25 1011.0 1000.8
В 2 н/о 5/0 2070 м
[Ac]
+22.0 +13.0 57 +25 +32 комфорт 1011.0 1000.9
нст 2 10 км 8/0 2070 м
[Ac]
+24.0 +10.0 41 +25 +31 комфорт 1011.0 1001.0
З 2 10 км 8/0 2040 м
[Ac]
+24.0 +11.0 44 +25 +33 комфорт 1011.0 1001.0
нст 2 10 км 8/5 1830 м
[Ac]
+26.0 +12.0 42 +27 +34 жарко 1011.0 1001.0
С 4 10 км 10/0 2160 м
[Ac]
+23.0 +12.0 50 +26 +29 жарко 1011.0 1000.9
Ю 2 н/о гроза, ливневой дождь 5/5 1200 м
[Cb]
+17.0 +17.0 100 +17 +25 1012.0 1001.8
Ю 3 н/о 5/0 3300 м
[Ac]
+19.0 +17.0 88 +21 +28 комфорт 1012.0 1001.8
ЮВ 3 н/о 8/0 4200 м
[Ac]
+20.0 +15.0 73 +23 +26 комфорт 1012.0 1001.8
ЮВ 2 10 км 8/0 2670 м
[Ac]
+20.0 +15.0 73 +23 +25 комфорт 1011.0 1000.9
СВ 2 н/о слаб. ливневой дождь 8/0 2190 м
[Ac]
+20.0 +15.0 73 +23 +24 комфорт 1012.0 1001.8
ЮВ 1 10 км 10/0 2010 м
[Ac]
+18.0 +18.0 100 +19 +19 1012.0 1001.8
Ю 2 10 км 10/8 1920 м
[Ac]
+18.0 +18.0 100 +19 +19 1013.0 1002.8
ЮВ 2 10 км 8/8 1950 м
[Ac]
+18.0 +18.0 100 +19 +19 1013.0 1002.8
В 2 10 км 10/10 1830 м +18.0 +18.0 100 +19 +19 1013.0 1002.8
ЮВ 2 4000 м дымка 8/0 2220 м
[Ac]
+17.0 +17.0 100 +17 +17 1014.0 1003.7
нст 1 6000 м 2/0 6000 м
[Ac]
+16.0 +16.0 100 +17 +17 1014.0 1003.7
В 2 2500 м туман поземный 2/2 30 м
[Frnb]
+14.0 +14.0 100 +13 +13 1014.0 1003.6
В 1 700 м туман ?/? +14.0 +14.0 100 +14 +14 1014.0 1003.6
В 2 н/о туман ?/? +13.0 +13.0 100 +12 +12 1014.0 1003.6
В 2 4000 м туман поземный ?/? +14.0 +14.0 100 +13 +13 1014.0 1003.6
В 2 2000 м дымка 8/8 120 м
[St]
+13.0 +13.0 100 +12 +12 1015.0 1004.6
В 2 2300 м дымка 8/8
[St]
+14.0 +14.0 100 +13 +14 1015.0 1004.6
В 2 н/о 8/8 30 м
[St]
+15.0 +15.0 100 +15 +15 1015.0 1004.6
В 3 н/о ясно +18.0 +18.0 100 +18 +18 1016.0 1005.8
В 3 н/о ясно +20.0 +17.0 83 +23 +23 комфорт 1016.0 1005.8
В 2 н/о ясно +21.0 +17.0 78 +26 +26 душно 1016.0 1005.9
В 2 н/о ясно +24.0 +15.0 57 +27 +27 жарко 1016.0 1005.9
ЮВ 2 н/о 2/0 7200 м
[Ci]
+26.0 +14.0 48 +28 +47 жарко 1015.0 1005.0
нст 3 10 км 8/0 5400 м
[Ac]
+27.0 +16.0 51 +30 +37 душно 1015.0 1005.1
нст 2 10 км ясно +28.0 +16.0 48 +31 +31 душно 1015.0 1005.1
ЮЗ 2 н/о 2/0 5100 м
[Ac]
+29.0 +16.0 45 +32 +43 душно 1014.0 1004.1
СЗ 2 н/о ясно +29.0 +15.0 43 +32 +32 душно 1014.0 1004.1
В 2 н/о ясно +30.0 +16.0 43 +33 +33 душно 1014.0 1004.2
ЮВ 2 н/о ясно +28.0 +19.0 58 +33 +33 очень
душно
1014.0 1004.1
Ю 4 10 км ясно +26.0 +18.0 61 +30 +30 душно 1014.0 1004.0
Ю 4 10 км ясно +25.0 +17.0 61 +29 +29 душно 1014.0 1004.0
СВ 2 н/о ясно +22.0 +17.0 73 +26 +26 душно 1015.0 1004.9
СВ 2 н/о 2/0 4800 м
[Ac]
+19.0 +17.0 88 +21 +21 комфорт 1015.0 1004.8
В 2 10 км ясно +19.0 +16.0 83 +21 +21 комфорт 1015.0 1004.8
нст 1 10 км ясно +17.0 +17.0 100 +18 +18 1015.0 1004.7
В 3 6000 м 8/0 4800 м
[Ac]
+17.0 +17.0 100 +17 +17 1015.0 1004.7
В 4 7000 м ясно +17.0 +17.0 100 +16 +16 1015.0 1004.7
нст 1 9000 м 2/0 4800 м
[Ac]
+16.0 +16.0 100 +17 +17 1015.0 1004.7
В 2 6000 м ясно +15.0 +15.0 100 +15 +15 1015.0 1004.6
В 2 4000 м дымка ясно +14.0 +14.0 100 +13 +13 1015.0 1004.6
ЮЗ 2 4000 м дымка 2/0 7200 м
[Ci]
+16.0 +16.0 100 +16 +17 1016.0 1005.7
нст 1 9000 м 2/0 7500 м
[Ci]
+18.0 +18.0 100 +19 +23 1017.0 1006.7
В 2 10 км ясно +22.0 +19.0 83 +27 +27 душно 1018.0 1007.9
З 4 10 км ясно +24.0 +18.0 69 +28 +28 душно 1018.0 1007.9
З 4-9 н/о ясно +26.0 +18.0 61 +30 +30 душно 1018.0 1008.0
З 6 10 км ясно +28.0 +19.0 58 +33 +33 очень
душно
1018.0 1008.1
З 8 10 км 2/2 1410 м +29.0 +18.0 51 +33 +36 очень
душно
1018.0 1008.1
З 8 10 км 8/8 1440 м +29.0 +18.0 51 +33 +34 очень
душно
1018.0 1008.1
З 8 10 км 2/2 1650 м +30.0 +17.0 46 +34 +36 очень
душно
1018.0 1008.1
З 9 10 км 2/0 2010 м
[Ac]
+30.0 +15.0 40 +32 +34 жарко 1017.0 1007.1
З 9 н/о 2/0 2010 м
[Ac]
+30.0 +14.0 38 +32 +33 жарко 1017.0 1007.1
З 8 10 км ясно +29.0 +13.0 37 +30 +30 жарко 1017.0 1007.1
З 8 10 км ясно +29.0 +13.0 37 +30 +30 жарко 1017.0 1007.1
З 5 10 км ясно +27.0 +13.0 42 +29 +29 жарко 1017.0 1007.0
З 2 10 км ясно +23.0 +13.0 53 +26 +26 жарко 1017.0 1006.9
СЗ 1 10 км ясно +21.0 +13.0 60 +25 +25 комфорт 1018.0 1007.8
СЗ 2 н/о ясно +20.0 +13.0 64 +22 +22 комфорт 1019.0 1008.8
З 3 10 км ясно +19.0 +13.0 68 +20 +20 1019.0 1008.7
СЗ 3 10 км ясно +19.0 +11.0 60 +20 +20 1020.0 1009.7
З 4 10 км ясно +17.0 +11.0 68 +17 +17 1020.0 1009.6
СВ 2 10 км ясно +19.0 +11.0 60 +20 +20 1019.0 1008.7
СВ 2 10 км ясно +14.0 +11.0 82 +13 +13 1019.0 1008.5
СЗ 2 н/о ясно +14.0 +11.0 82 +13 +13 1019.0 1008.5
штиль 0 10 км ясно +12.0 +12.0 100 +11 +11 1019.0 1008.5
нст 1 10 км ясно +16.0 +13.0 82 +17 +17 1020.0 1009.6
В 2 10 км ясно +19.0 +14.0 73 +21 +21 комфорт 1020.0 1009.7
В 2 н/о ясно +22.0 +13.0 57 +25 +25 комфорт 1020.0 1009.8
З 5 н/о ясно +24.0 +11.0 44 +25 +25 комфорт 1020.0 1009.9
СЗ 6 10 км ясно +25.0 +12.0 44 +27 +27 жарко 1019.0 1008.9
СЗ 6 10 км ясно +26.0 +13.0 45 +28 +28 жарко 1019.0 1009.0
З 6 10 км ясно +26.0 +12.0 42 +27 +27 жарко 1019.0 1009.0
З 5 н/о ясно +27.0 +14.0 45 +29 +29 жарко 1018.0 1008.0
З 5 н/о ясно +28.0 +13.0 40 +30 +30 жарко 1017.0 1007.1
З 5 н/о 8/0 4500 м
[Ac]
+28.0 +14.0 42 +30 +33 жарко 1017.0 1007.1
З 5 н/о ясно +28.0 +13.0 40 +30 +30 жарко 1016.0 1006.1
З 5 н/о ясно +28.0 +13.0 40 +30 +30 жарко 1015.0 1005.1
СЗ 3 н/о ясно +27.0 +13.0 42 +29 +29 жарко 1014.0 1004.1
З 2 10 км ясно +26.0 +14.0 48 +28 +28 жарко 1014.0 1004.0
нст 1 10 км ясно +20.0 +15.0 73 +23 +23 комфорт 1014.0 1003.8
нст 1 10 км ясно +18.0 +15.0 83 +19 +19 1014.0 1003.8
В 2 10 км ясно +16.0 +16.0 100 +16 +16 1014.0 1003.7
В 4 10 км ясно +15.0 +15.0 100 +14 +14 1014.0 1003.7
В 4 10 км ясно +15.0 +15.0 100 +14 +14 1013.0 1002.7
В 2 10 км ясно +14.0 +14.0 100 +13 +13 1013.0 1002.6
В 3 10 км ясно +13.0 +13.0 100 +11 +11 1012.0 1001.6
ЮВ 2 10 км ясно +14.0 +14.0 100 +13 +13 1012.0 1001.6
В 2 10 км ясно +13.0 +13.0 100 +12 +12 1012.0 1001.6
В 1 10 км ясно +12.0 +12.0 100 +12 +12 1012.0 1001.6
нст 1 10 км ясно +15.0 +15.0 100 +15 +15 1012.0 1001.7
Местоположение метеостанции Горна-Оряховица (Болгария): широта 43.15 долгота 25.71 высота над уровнем моря 87 м.
В архиве по умолчанию представлена погода в Горна-Оряховице за последнюю неделю. Архивные данные за месяц целиком и за предыдущие месяцы, начиная с января 2011 года, Вы можете получить, выбрав интересующий диапазон дат из раскрывающегося списка и нажав кнопку "Найти!".
*Определитесь, кто Вы:
Внимание! Время в таблицах - всемирное. Для получения местного времени необходимо прибавить поправку, которая равна 2 ч.
Смотрите также архив погоды в соседних городах и на ближайших метеорологических станциях:
Партнеры нашего сайта:      
Пояснения к столбцам:
  • Ветер - указаны скорость ветра в м/с - средняя за 10 мин, порывы в срок и между сроками (в фигурных скобках) и направление, откуда дует ветер: С - северный,
  • СВ - северо-восточный, В - восточный, ЮВ - юго-восточный, Ю - южный, ЮЗ - юго-западный, З - западный, СЗ - северо-западный.
  • Видимость - горизонтальная дальность видимости в метрах или километрах. При видимости от 1 до 10 км при отсутствии осадков обычно наблюдается дымка, при ухудшении видимости до 1 км и менее - туман. В сухую погоду видимость может ухудшаться дымом, пылью или мглою.
  • Явления - указаны атмосферные явления, наблюдавшиеся в срок или в последний час перед сроком; фигурными скобками обозначены явления, наблюдавшиеся между сроками (за 1-3 часа до срока); квадратными скобками обозначены град или гололедные отложения с указанием их диаметра в мм.
  • Облачность - указаны через наклонную черту общая и нижняя облачность в баллах и высота нижней границы облаков в метрах; квадратными скобками обозначены формы облаков: Ci - перистые, Cs - перисто-слоистые, Cc - перисто-кучевые, Ac - высококучевые, As - высокослоистые, Sc - слоисто-кучевые, Ns - слоисто-дождевые, Cu - кучевые, Cb - кучево-дождевые. Подробнее классификацию облаков см. в Атласе облаков (PDF).
  • T - Температура воздуха - температура, измеренная на высоте 2 м над землей.
  • Td - Температура точки росы - температура, при понижении до которой содержащийся в воздухе водяной пар достигнет насыщения.
  • f - Относительная влажность воздуха - влажноcть воздуха, измеренная на высоте 2 м над землей.
  • Te - Эффективная температура - температура, которую ощущает одетый по сезону человек в тени. Характеристика душности погоды. При расчете учитывается влияние влажности воздуха и скорости ветра на теплоощущения человека.
  • Tes - Эффективная температура на солнце - температура, которую ощущает человек, с поправкой на солнечный нагрев. Характеристика знойности погоды. Зависит от высоты солнца над горизонтом, облачности и скорости ветра. Ночью, в пасмурную погоду, а также при ветре 12 м/с и более поправка равна нулю.
  • P - Атмосферное давление - приведенное к уровню моря атмосферное давление.
  • Po - Атмосферное давление - измеренное на уровне метеостанции атмосферное давление.
  • Tmin - Минимальная температура - минимум температуры воздуха на высоте 2 м над землей.
  • Tmax - Максимальная температура - максимум температуры воздуха на высоте 2 м над землей.
  • R - Количество осадков - Количество выпавших осадков за период времени, мм. При наведении курсора мыши на число - период времени, за который выпало указанное количество осадков.
  • R24 - Количество осадков - Количество выпавших осадков за 24 часа, мм.
  • S - Снежный покров - Высота снежного покрова, см. При наведении курсора мыши на число - состояние снежного покрова и степень покрытия местности в баллах.